Weather History for Bentonville, AR

Change the Weather History Date:

Thursday, December 29, 2011

  Actual Average Record
Temperature  
Mean Temperature 48 °F -  
Max Temperature 62 °F 44 °F 67 °F (1964)
Min Temperature 35 °F 25 °F -4 °F (1983)
Degree Days  
Heating Degree Days 16    
Moisture  
Dew Point 31 °F    
Average Humidity 56    
Maximum Humidity 75    
Minimum Humidity 30    
Precipitation  
Precipitation 0.00 in - - ()
Sea Level Pressure  
Sea Level Pressure 29.85 in    
Wind  
Wind Speed 6 mph (SSW)    
Max Wind Speed 16 mph    
Max Gust Speed 21 mph    
Visibility 10 miles    
Events      
Averages and records for this station are not official NWS values.
T = Trace of Precipitation, MM = Missing Value Source: NWS Daily Summary

Daily Weather History Graph

Daily Weather History Graph

Search for Another Location

Airport:

Trip Planner

Search our weather history database for the weather conditions in past years. The results will help you decide how hot, cold, wet, or windy it might be!

Date:

Astronomy

Dec. 29, 2011 Rise Set
Actual Time 7:27 AM CST 5:10 PM CST
Civil Twilight 6:58 AM CST 5:38 PM CST
Nautical Twilight 6:26 AM CST 6:11 PM CST
Astronomical Twilight 5:55 AM CST 6:42 PM CST
Moon 10:30 AM CST (12/29) 10:37 PM CST (12/29)
Length of Visible Light 10h 39m
Length of Day
9h 42m
Waxing Crescent, 27% of the Moon is Illuminated
Dec 29
Waxing Crescent
Jan 1
First Quarter
Jan 9
Full
Jan 16
Last Quarter
Jan 23
New

Hourly Weather History & Observations

Time (CST) Temp. Windchill Dew Point Humidity Pressure Visibility Wind Dir Wind Speed Gust Speed Precip Events Conditions
12:35 AM 35.6 °F - 26.6 °F 70% 29.96 in 10.0 mi Calm Calm - N/A   Clear
1:15 AM 37.4 °F 34.9 °F 26.6 °F 65% 29.96 in 10.0 mi SW 3.5 mph - N/A   Clear
1:35 AM 37.4 °F 33.8 °F 26.6 °F 65% 29.96 in 10.0 mi SSW 4.6 mph - N/A   Clear
1:55 AM 37.4 °F 33.8 °F 26.6 °F 65% 29.95 in 10.0 mi SSW 4.6 mph - N/A   Clear
2:15 AM 37.4 °F 32.1 °F 26.6 °F 65% 29.95 in 10.0 mi SSW 6.9 mph - N/A   Clear
2:35 AM 37.4 °F 32.8 °F 28.4 °F 70% 29.94 in 10.0 mi SSW 5.8 mph - N/A   Clear
2:55 AM 37.4 °F 33.8 °F 26.6 °F 65% 29.95 in 10.0 mi SW 4.6 mph - N/A   Clear
3:15 AM 37.4 °F 33.8 °F 26.6 °F 65% 29.94 in 10.0 mi SW 4.6 mph - N/A   Clear
3:35 AM 37.4 °F 33.8 °F 28.4 °F 70% 29.93 in 10.0 mi SSW 4.6 mph - N/A   Clear
3:55 AM 35.6 °F 30.7 °F 26.6 °F 70% 29.93 in 10.0 mi WSW 5.8 mph - N/A   Clear
4:15 AM 35.6 °F 31.7 °F 28.4 °F 75% 29.92 in 10.0 mi SW 4.6 mph - N/A   Clear
4:35 AM 35.6 °F 29.9 °F 26.6 °F 70% 29.91 in 10.0 mi SW 6.9 mph - N/A   Clear
4:55 AM 37.4 °F 32.1 °F 28.4 °F 70% 29.92 in 10.0 mi SW 6.9 mph - N/A   Clear
5:15 AM 35.6 °F 29.9 °F 28.4 °F 75% 29.91 in 10.0 mi SW 6.9 mph - N/A   Clear
5:35 AM 37.4 °F 32.1 °F 28.4 °F 70% 29.91 in 10.0 mi SW 6.9 mph - N/A   Clear
5:55 AM 37.4 °F 32.1 °F 28.4 °F 70% 29.92 in 10.0 mi SW 6.9 mph - N/A   Clear
6:55 AM 37.4 °F 34.9 °F 28.4 °F 70% 29.91 in 10.0 mi SSW 3.5 mph - N/A   Clear
7:15 AM 37.4 °F 32.8 °F 28.4 °F 70% 29.91 in 10.0 mi SSW 5.8 mph - N/A   Clear
7:35 AM 35.6 °F 32.8 °F 28.4 °F 75% 29.90 in 10.0 mi SSW 3.5 mph - N/A   Clear
7:55 AM 37.4 °F - 28.4 °F 70% 29.90 in 10.0 mi Calm Calm - N/A   Clear
8:35 AM 39.2 °F 35.0 °F 30.2 °F 70% 29.91 in 10.0 mi SSW 5.8 mph - N/A   Clear
8:55 AM 42.8 °F 38.0 °F 32.0 °F 66% 29.91 in 10.0 mi SW 8.1 mph - N/A   Clear
9:15 AM 44.6 °F 39.7 °F 33.8 °F 66% 29.91 in 10.0 mi SW 9.2 mph - N/A   Clear
9:35 AM 44.6 °F 39.2 °F 33.8 °F 66% 29.92 in 10.0 mi SW 10.4 mph - N/A   Clear
9:55 AM 46.4 °F 40.1 °F 35.6 °F 66% 29.92 in 10.0 mi SW 15.0 mph 18.4 mph N/A   Clear
10:15 AM 48.2 °F - 35.6 °F 62% 29.92 in 10.0 mi SW 12.7 mph - N/A   Clear
10:35 AM 50.0 °F - 35.6 °F 58% 29.92 in 10.0 mi SW 11.5 mph 16.1 mph N/A   Clear
11:15 AM 51.8 °F - 35.6 °F 54% 29.90 in 10.0 mi WSW 12.7 mph 19.6 mph N/A   Clear
11:35 AM 53.6 °F - 35.6 °F 51% 29.88 in 10.0 mi SSW 12.7 mph 17.3 mph N/A   Clear
11:55 AM 53.6 °F - 35.6 °F 51% 29.87 in 10.0 mi SW 12.7 mph 16.1 mph N/A   Clear
12:15 PM 55.4 °F - 33.8 °F 44% 29.86 in 10.0 mi SW 16.1 mph 20.7 mph N/A   Clear
12:35 PM 55.4 °F - 33.8 °F 44% 29.85 in 10.0 mi SW 10.4 mph - N/A   Clear
12:55 PM 57.2 °F - 33.8 °F 41% 29.83 in 10.0 mi SSW 9.2 mph - N/A   Clear
1:15 PM 57.2 °F - 33.8 °F 41% 29.82 in 10.0 mi SSW 10.4 mph - N/A   Clear
1:35 PM 59.0 °F - 33.8 °F 39% 29.81 in 10.0 mi SW 9.2 mph - N/A   Clear
1:55 PM 60.8 °F - 32.0 °F 34% 29.80 in 10.0 mi SW 12.7 mph - N/A   Clear
2:35 PM 60.8 °F - 32.0 °F 34% 29.80 in 10.0 mi SW 15.0 mph - N/A   Clear
2:55 PM 62.6 °F - 32.0 °F 32% 29.78 in 10.0 mi SSW 9.2 mph - N/A   Clear
3:15 PM 62.6 °F - 30.2 °F 30% 29.78 in 10.0 mi SSW 9.2 mph - N/A   Clear
3:35 PM 62.6 °F - 32.0 °F 32% 29.79 in 10.0 mi SSW 9.2 mph - N/A   Clear
3:55 PM 62.6 °F - 30.2 °F 30% 29.78 in 10.0 mi SSW 8.1 mph - N/A   Clear
4:15 PM 60.8 °F - 30.2 °F 31% 29.78 in 10.0 mi SSW 8.1 mph - N/A   Clear
4:55 PM 57.2 °F - 30.2 °F 36% 29.78 in 10.0 mi SSW 9.2 mph - N/A   Clear
5:15 PM 55.4 °F - 30.2 °F 38% 29.78 in 10.0 mi SSW 5.8 mph - N/A   Clear
5:35 PM 55.4 °F - 30.2 °F 38% 29.78 in 10.0 mi South 6.9 mph - N/A   Clear
5:55 PM 53.6 °F - 32.0 °F 44% 29.77 in 10.0 mi South 9.2 mph - N/A   Clear
6:15 PM 53.6 °F - 32.0 °F 44% 29.77 in 10.0 mi South 9.2 mph - N/A   Clear
6:35 PM 53.6 °F - 32.0 °F 44% 29.76 in 10.0 mi South 8.1 mph - N/A   Clear
7:15 PM 51.8 °F - 33.8 °F 50% 29.76 in 10.0 mi South 8.1 mph - N/A   Clear
7:35 PM 51.8 °F - 33.8 °F 50% 29.76 in 10.0 mi South 8.1 mph - N/A   Clear
7:55 PM 51.8 °F - 33.8 °F 50% 29.77 in 10.0 mi SSW 6.9 mph - N/A   Clear
8:15 PM 50.0 °F - 33.8 °F 54% 29.76 in 10.0 mi South 6.9 mph - N/A   Clear
8:55 PM 48.2 °F - 33.8 °F 58% 29.75 in 10.0 mi South 6.9 mph - N/A   Clear
9:35 PM 48.2 °F - 35.6 °F 62% 29.73 in 10.0 mi South 8.1 mph - N/A   Clear
9:55 PM 50.0 °F - 33.8 °F 54% 29.74 in 10.0 mi South 9.2 mph - N/A   Clear
10:15 PM 50.0 °F - 33.8 °F 54% 29.73 in 10.0 mi South 10.4 mph - N/A   Clear
10:35 PM 50.0 °F - 33.8 °F 54% 29.75 in 10.0 mi SSW 9.2 mph - N/A   Clear
11:15 PM 48.2 °F - 35.6 °F 62% 29.74 in 10.0 mi SSW 9.2 mph - N/A   Clear
11:35 PM 50.0 °F - 35.6 °F 58% 29.74 in 10.0 mi SSW 10.4 mph - N/A   Clear
11:55 PM 50.0 °F - 37.4 °F 62% 29.74 in 10.0 mi SSW 10.4 mph - N/A   Clear